Time,TemperatureF,DewpointF,PressureIn,WindDirection,WindDirectionDegrees,WindSpeedMPH,WindSpeedGustMPH,Humidity,HourlyPrecipIn,Conditions,Clouds,dailyrainin,SoftwareType,DateUTC
2013-03-05 00:00:00,43.9,41.2,30.12,WNW,288,1.0,3.0,90,0.00,,,0.00,meteohub,2013-03-05 05:00:00,
2013-03-05 00:02:00,44.2,41.5,30.12,WNW,288,1.0,3.0,90,0.00,,,0.00,meteohub,2013-03-05 05:02:00,
2013-03-05 00:04:00,44.4,41.4,30.12,WNW,288,2.0,3.0,89,0.00,,,0.00,meteohub,2013-03-05 05:04:00,
2013-03-05 00:09:00,45.0,41.5,30.12,WNW,288,1.0,3.0,88,0.00,,,0.00,meteohub,2013-03-05 05:09:00,
2013-03-05 00:14:00,45.3,41.9,30.12,WNW,288,1.0,3.0,88,0.00,,,0.00,meteohub,2013-03-05 05:14:00,
2013-03-05 00:19:00,45.5,41.9,30.12,WNW,288,0.0,2.0,87,0.00,,,0.00,meteohub,2013-03-05 05:19:00,
2013-03-05 00:24:00,45.7,42.1,30.11,WNW,288,0.0,2.0,87,0.00,,,0.00,meteohub,2013-03-05 05:24:00,
2013-03-05 00:29:00,45.7,42.1,30.11,WNW,288,0.0,1.0,87,0.00,,,0.00,meteohub,2013-03-05 05:29:00,
2013-03-05 00:34:00,45.9,42.3,30.11,WNW,288,0.0,1.0,87,0.00,,,0.00,meteohub,2013-03-05 05:34:00,
2013-03-05 00:39:00,45.7,42.1,30.11,WNW,288,0.0,1.0,87,0.00,,,0.00,meteohub,2013-03-05 05:39:00,
2013-03-05 00:44:00,45.7,42.1,30.11,WNW,288,0.0,1.0,87,0.00,,,0.00,meteohub,2013-03-05 05:44:00,
2013-03-05 00:49:00,45.5,41.9,30.11,WNW,288,0.0,1.0,87,0.00,,,0.00,meteohub,2013-03-05 05:49:00,
2013-03-05 00:54:00,45.5,42.1,30.11,WNW,288,0.0,0.0,88,0.00,,,0.00,meteohub,2013-03-05 05:54:00,
2013-03-05 00:59:00,45.7,42.3,30.11,WNW,288,0.0,0.0,88,0.00,,,0.00,meteohub,2013-03-05 05:59:00,
2013-03-05 01:04:00,45.5,42.1,30.11,WNW,288,0.0,0.0,88,0.00,,,0.00,meteohub,2013-03-05 06:04:00,
2013-03-05 01:09:00,45.3,41.7,30.11,WNW,288,0.0,0.0,87,0.00,,,0.00,meteohub,2013-03-05 06:09:00,
2013-03-05 01:14:00,45.0,41.0,30.12,WNW,288,0.0,0.0,86,0.00,,,0.00,meteohub,2013-03-05 06:14:00,
2013-03-05 01:19:00,44.8,41.2,30.12,WNW,288,0.0,0.0,87,0.00,,,0.00,meteohub,2013-03-05 06:19:00,
2013-03-05 01:24:00,44.8,41.4,30.11,WNW,288,0.0,0.0,88,0.00,,,0.00,meteohub,2013-03-05 06:24:00,
2013-03-05 01:29:00,44.4,41.2,30.11,WNW,288,0.0,0.0,88,0.00,,,0.00,meteohub,2013-03-05 06:29:00,
2013-03-05 01:34:00,44.2,41.2,30.10,WNW,288,0.0,0.0,89,0.00,,,0.00,meteohub,2013-03-05 06:34:00,
2013-03-05 01:40:00,44.2,41.5,30.10,WNW,288,0.0,1.0,90,0.00,,,0.00,meteohub,2013-03-05 06:40:00,
2013-03-05 01:45:00,44.1,41.4,30.10,WNW,288,0.0,2.0,90,0.00,,,0.00,meteohub,2013-03-05 06:45:00,
2013-03-05 01:50:00,44.1,41.4,30.10,WNW,288,0.0,2.0,90,0.00,,,0.00,meteohub,2013-03-05 06:50:00,
2013-03-05 01:55:00,43.9,41.2,30.11,WNW,288,0.0,0.0,90,0.00,,,0.00,meteohub,2013-03-05 06:55:00,
2013-03-05 02:00:00,44.1,41.5,30.11,WNW,288,0.0,1.0,91,0.00,,,0.00,meteohub,2013-03-05 07:00:00,
2013-03-05 02:05:00,44.1,41.5,30.10,WNW,288,0.0,1.0,91,0.00,,,0.00,meteohub,2013-03-05 07:05:00,
2013-03-05 02:10:00,44.2,41.5,30.11,WNW,288,0.0,1.0,90,0.00,,,0.00,meteohub,2013-03-05 07:10:00,
2013-03-05 02:15:00,44.2,41.5,30.11,WNW,288,0.0,0.0,90,0.00,,,0.00,meteohub,2013-03-05 07:15:00,
2013-03-05 02:20:00,44.2,41.5,30.11,WNW,288,0.0,1.0,90,0.00,,,0.00,meteohub,2013-03-05 07:20:00,
2013-03-05 02:25:00,44.2,41.5,30.11,WNW,288,0.0,1.0,90,0.00,,,0.00,meteohub,2013-03-05 07:25:00,
2013-03-05 02:30:00,44.1,41.4,30.11,WNW,288,0.0,1.0,90,0.00,,,0.00,meteohub,2013-03-05 07:30:00,
2013-03-05 02:35:00,43.9,40.8,30.11,WNW,288,0.0,0.0,89,0.00,,,0.00,meteohub,2013-03-05 07:35:00,
2013-03-05 02:40:00,43.5,40.8,30.11,WNW,288,0.0,0.0,90,0.00,,,0.00,meteohub,2013-03-05 07:40:00,
2013-03-05 02:45:00,43.3,40.6,30.10,WNW,288,0.0,0.0,90,0.00,,,0.00,meteohub,2013-03-05 07:45:00,
2013-03-05 02:50:00,43.3,40.8,30.10,WNW,288,0.0,0.0,91,0.00,,,0.00,meteohub,2013-03-05 07:50:00,
2013-03-05 02:55:00,43.2,40.5,30.10,WNW,288,0.0,0.0,90,0.00,,,0.00,meteohub,2013-03-05 07:55:00,
2013-03-05 03:00:00,43.0,40.5,30.10,WNW,288,0.0,0.0,91,0.00,,,0.00,meteohub,2013-03-05 08:00:00,
2013-03-05 03:06:00,43.2,41.0,30.10,WNW,288,0.0,0.0,92,0.00,,,0.00,meteohub,2013-03-05 08:06:00,
2013-03-05 03:11:00,43.3,41.2,30.10,WNW,288,0.0,0.0,92,0.00,,,0.00,meteohub,2013-03-05 08:11:00,
2013-03-05 03:16:00,43.3,41.2,30.10,WNW,288,0.0,0.0,92,0.00,,,0.00,meteohub,2013-03-05 08:16:00,
2013-03-05 03:21:00,43.3,41.2,30.10,WNW,288,0.0,0.0,92,0.00,,,0.00,meteohub,2013-03-05 08:21:00,
2013-03-05 03:26:00,43.3,40.8,30.10,WNW,288,0.0,0.0,91,0.00,,,0.00,meteohub,2013-03-05 08:26:00,
2013-03-05 03:31:00,43.2,40.6,30.10,WNW,288,0.0,0.0,91,0.00,,,0.00,meteohub,2013-03-05 08:31:00,
2013-03-05 03:36:00,42.6,39.9,30.10,WNW,288,0.0,0.0,90,0.00,,,0.00,meteohub,2013-03-05 08:36:00,
2013-03-05 03:41:00,42.6,40.1,30.09,WNW,288,0.0,0.0,91,0.00,,,0.00,meteohub,2013-03-05 08:41:00,
2013-03-05 03:46:00,42.8,40.6,30.09,WNW,288,0.0,0.0,92,0.00,,,0.00,meteohub,2013-03-05 08:46:00,
2013-03-05 03:51:00,42.6,40.5,30.10,WNW,288,0.0,0.0,92,0.00,,,0.00,meteohub,2013-03-05 08:51:00,
2013-03-05 03:56:00,42.4,40.3,30.10,WNW,288,0.0,0.0,92,0.00,,,0.00,meteohub,2013-03-05 08:56:00,
2013-03-05 04:01:00,42.3,40.1,30.10,WNW,288,0.0,0.0,92,0.00,,,0.00,meteohub,2013-03-05 09:01:00,
2013-03-05 04:06:00,41.9,39.4,30.09,WNW,288,0.0,0.0,91,0.00,,,0.00,meteohub,2013-03-05 09:06:00,
2013-03-05 04:11:00,41.5,39.4,30.09,WNW,288,0.0,0.0,92,0.00,,,0.00,meteohub,2013-03-05 09:11:00,
2013-03-05 04:16:00,41.7,39.9,30.09,WNW,288,0.0,0.0,93,0.00,,,0.00,meteohub,2013-03-05 09:16:00,
2013-03-05 04:21:00,41.7,39.6,30.09,WNW,288,0.0,0.0,92,0.00,,,0.00,meteohub,2013-03-05 09:21:00,
2013-03-05 04:27:00,41.5,39.4,30.09,WNW,288,0.0,0.0,92,0.00,,,0.00,meteohub,2013-03-05 09:27:00,
2013-03-05 04:32:00,41.2,39.0,30.09,WNW,288,0.0,0.0,92,0.00,,,0.00,meteohub,2013-03-05 09:32:00,
2013-03-05 04:37:00,41.0,38.8,30.09,WNW,288,0.0,0.0,92,0.00,,,0.00,meteohub,2013-03-05 09:37:00,
2013-03-05 04:42:00,41.0,39.2,30.09,WNW,288,0.0,0.0,93,0.00,,,0.00,meteohub,2013-03-05 09:42:00,
2013-03-05 04:47:00,41.0,39.2,30.09,WNW,288,0.0,0.0,93,0.00,,,0.00,meteohub,2013-03-05 09:47:00,
2013-03-05 04:52:00,40.8,39.0,30.09,WNW,288,0.0,0.0,93,0.00,,,0.00,meteohub,2013-03-05 09:52:00,
2013-03-05 04:57:00,41.0,39.2,30.09,WNW,288,0.0,1.0,93,0.00,,,0.00,meteohub,2013-03-05 09:57:00,
2013-03-05 05:02:00,41.2,39.6,30.09,WNW,288,0.0,1.0,94,0.00,,,0.00,meteohub,2013-03-05 10:02:00,
2013-03-05 05:07:00,41.5,39.9,30.09,WNW,288,0.0,1.0,94,0.00,,,0.00,meteohub,2013-03-05 10:07:00,
2013-03-05 05:12:00,42.1,40.5,30.09,WNW,288,0.0,1.0,94,0.00,,,0.00,meteohub,2013-03-05 10:12:00,
2013-03-05 05:17:00,42.3,40.6,30.09,WNW,288,0.0,1.0,94,0.00,,,0.00,meteohub,2013-03-05 10:17:00,
2013-03-05 05:22:00,42.3,40.5,30.10,WNW,288,0.0,1.0,93,0.00,,,0.00,meteohub,2013-03-05 10:22:00,
2013-03-05 05:27:00,42.3,40.5,30.09,WNW,288,0.0,1.0,93,0.00,,,0.00,meteohub,2013-03-05 10:27:00,
2013-03-05 05:32:00,42.4,40.6,30.09,WNW,288,0.0,0.0,93,0.00,,,0.00,meteohub,2013-03-05 10:32:00,
2013-03-05 05:37:00,42.4,40.6,30.10,WNW,288,0.0,0.0,93,0.00,,,0.00,meteohub,2013-03-05 10:37:00,
2013-03-05 05:42:00,43.0,41.4,30.10,WNW,288,0.0,1.0,94,0.00,,,0.00,meteohub,2013-03-05 10:42:00,
2013-03-05 05:47:00,43.5,41.9,30.10,WNW,288,0.0,1.0,94,0.00,,,0.00,meteohub,2013-03-05 10:47:00,
2013-03-05 05:52:00,44.1,42.1,30.10,WNW,288,0.0,1.0,93,0.00,,,0.00,meteohub,2013-03-05 10:52:00,
2013-03-05 05:57:00,44.2,42.3,30.11,WNW,288,0.0,1.0,93,0.00,,,0.00,meteohub,2013-03-05 10:57:00,
2013-03-05 06:02:00,44.8,42.8,30.11,WNW,288,0.0,1.0,93,0.00,,,0.00,meteohub,2013-03-05 11:02:00,
2013-03-05 06:07:00,45.0,42.8,30.11,WNW,288,0.0,1.0,92,0.00,,,0.00,meteohub,2013-03-05 11:07:00,
2013-03-05 06:12:00,45.0,42.8,30.11,WNW,288,0.0,1.0,92,0.00,,,0.00,meteohub,2013-03-05 11:12:00,
2013-03-05 06:17:00,45.1,43.0,30.11,WNW,288,0.0,1.0,92,0.00,,,0.00,meteohub,2013-03-05 11:17:00,
2013-03-05 06:22:00,45.3,42.8,30.11,WNW,288,0.0,1.0,91,0.00,,,0.00,meteohub,2013-03-05 11:22:00,
2013-03-05 06:27:00,45.3,42.6,30.11,WNW,288,0.0,1.0,90,0.00,,,0.00,meteohub,2013-03-05 11:27:00,
2013-03-05 06:32:00,45.1,42.4,30.12,WNW,288,0.0,1.0,90,0.00,,,0.00,meteohub,2013-03-05 11:32:00,
2013-03-05 06:37:00,45.1,42.6,30.12,WNW,288,0.0,1.0,91,0.00,,,0.00,meteohub,2013-03-05 11:37:00,
2013-03-05 06:42:00,45.1,42.4,30.12,WNW,288,0.0,1.0,90,0.00,,,0.00,meteohub,2013-03-05 11:42:00,
2013-03-05 06:47:00,45.0,42.3,30.12,WNW,288,0.0,1.0,90,0.00,,,0.00,meteohub,2013-03-05 11:47:00,
2013-03-05 06:52:00,44.6,41.5,30.12,WNW,288,0.0,1.0,89,0.00,,,0.00,meteohub,2013-03-05 11:52:00,
2013-03-05 06:57:00,44.4,41.7,30.12,WNW,288,0.0,0.0,90,0.00,,,0.00,meteohub,2013-03-05 11:57:00,
2013-03-05 07:02:00,44.2,41.5,30.12,WNW,288,0.0,0.0,90,0.00,,,0.00,meteohub,2013-03-05 12:02:00,
2013-03-05 07:07:00,44.2,41.7,30.12,WNW,288,0.0,0.0,91,0.00,,,0.00,meteohub,2013-03-05 12:07:00,
2013-03-05 07:12:00,44.2,41.7,30.13,WNW,288,0.0,0.0,91,0.00,,,0.00,meteohub,2013-03-05 12:12:00,
2013-03-05 07:17:00,44.2,42.1,30.13,WNW,288,0.0,0.0,92,0.00,,,0.00,meteohub,2013-03-05 12:17:00,
2013-03-05 07:22:00,44.4,42.3,30.12,WNW,288,0.0,0.0,92,0.00,,,0.00,meteohub,2013-03-05 12:22:00,
2013-03-05 07:27:00,45.1,43.2,30.12,WNW,288,0.0,1.0,93,0.00,,,0.00,meteohub,2013-03-05 12:27:00,
2013-03-05 07:32:00,45.9,43.9,30.12,WNW,288,0.0,1.0,93,0.00,,,0.00,meteohub,2013-03-05 12:32:00,
2013-03-05 07:37:00,46.6,44.4,30.13,WNW,288,0.0,1.0,92,0.00,,,0.00,meteohub,2013-03-05 12:37:00,
2013-03-05 07:42:00,47.3,45.1,30.13,WNW,288,1.0,1.0,92,0.00,,,0.00,meteohub,2013-03-05 12:42:00,
2013-03-05 07:47:00,48.4,45.5,30.13,WNW,288,0.0,2.0,90,0.00,,,0.00,meteohub,2013-03-05 12:47:00,
2013-03-05 07:52:00,49.3,46.2,30.13,WNW,288,0.0,2.0,89,0.00,,,0.00,meteohub,2013-03-05 12:52:00,
2013-03-05 07:57:00,50.5,47.1,30.13,WNW,288,1.0,3.0,88,0.00,,,0.00,meteohub,2013-03-05 12:57:00,
2013-03-05 08:02:00,51.8,47.5,30.13,WNW,288,1.0,3.0,85,0.00,,,0.00,meteohub,2013-03-05 13:02:00,
2013-03-05 08:07:00,53.4,48.0,30.13,WNW,288,1.0,3.0,82,0.00,,,0.00,meteohub,2013-03-05 13:07:00,
2013-03-05 08:12:00,54.9,48.2,30.13,WNW,288,1.0,3.0,78,0.00,,,0.00,meteohub,2013-03-05 13:12:00,
2013-03-05 08:17:00,55.8,48.0,30.13,WNW,288,0.0,3.0,75,0.00,,,0.00,meteohub,2013-03-05 13:17:00,
2013-03-05 08:22:00,57.0,48.4,30.13,WNW,288,1.0,3.0,73,0.00,,,0.00,meteohub,2013-03-05 13:22:00,
2013-03-05 08:27:00,57.9,48.6,30.13,WNW,288,2.0,3.0,71,0.00,,,0.00,meteohub,2013-03-05 13:27:00,
2013-03-05 08:32:00,59.0,48.9,30.14,WNW,288,1.0,4.0,69,0.00,,,0.00,meteohub,2013-03-05 13:32:00,
2013-03-05 08:37:00,60.3,49.3,30.14,WNW,288,2.0,4.0,67,0.00,,,0.00,meteohub,2013-03-05 13:37:00,
2013-03-05 08:42:00,61.2,49.3,30.14,WNW,288,2.0,4.0,65,0.00,,,0.00,meteohub,2013-03-05 13:42:00,
2013-03-05 08:47:00,62.1,49.3,30.14,WNW,288,2.0,3.0,63,0.00,,,0.00,meteohub,2013-03-05 13:47:00,
2013-03-05 08:52:00,62.8,49.6,30.14,WNW,288,4.0,4.0,62,0.00,,,0.00,meteohub,2013-03-05 13:52:00,
2013-03-05 08:57:00,63.1,49.5,30.14,WNW,288,0.0,5.0,61,0.00,,,0.00,meteohub,2013-03-05 13:57:00,
2013-03-05 09:02:00,63.7,50.0,30.14,WNW,288,3.0,5.0,61,0.00,,,0.00,meteohub,2013-03-05 14:02:00,
2013-03-05 09:07:00,64.2,50.5,30.14,WNW,288,1.0,5.0,61,0.00,,,0.00,meteohub,2013-03-05 14:07:00,
2013-03-05 09:12:00,64.8,51.1,30.14,WNW,288,1.0,4.0,61,0.00,,,0.00,meteohub,2013-03-05 14:12:00,
2013-03-05 09:17:00,65.1,51.3,30.14,WNW,288,2.0,4.0,61,0.00,,,0.00,meteohub,2013-03-05 14:17:00,
2013-03-05 09:22:00,66.0,51.8,30.14,WNW,288,2.0,4.0,60,0.00,,,0.00,meteohub,2013-03-05 14:22:00,
2013-03-05 09:27:00,66.4,51.6,30.14,WNW,288,1.0,4.0,59,0.00,,,0.00,meteohub,2013-03-05 14:27:00,
2013-03-05 09:32:00,66.9,51.6,30.14,WNW,288,1.0,4.0,58,0.00,,,0.00,meteohub,2013-03-05 14:32:00,
2013-03-05 09:37:00,67.5,52.7,30.14,WNW,288,1.0,3.0,59,0.00,,,0.00,meteohub,2013-03-05 14:37:00,
2013-03-05 09:42:00,67.8,52.0,30.14,WNW,288,0.0,3.0,57,0.00,,,0.00,meteohub,2013-03-05 14:42:00,
2013-03-05 09:47:00,68.5,52.7,30.14,WNW,288,2.0,3.0,57,0.00,,,0.00,meteohub,2013-03-05 14:47:00,
2013-03-05 09:52:00,68.5,53.6,30.14,WNW,288,2.0,3.0,59,0.00,,,0.00,meteohub,2013-03-05 14:52:00,
2013-03-05 09:57:00,68.2,53.8,30.14,WNW,288,2.0,3.0,60,0.00,,,0.00,meteohub,2013-03-05 14:57:00,
2013-03-05 10:02:00,67.8,54.0,30.13,WNW,288,2.0,4.0,61,0.00,,,0.00,meteohub,2013-03-05 15:02:00,
2013-03-05 10:07:00,68.0,54.5,30.13,WNW,288,1.0,4.0,62,0.00,,,0.00,meteohub,2013-03-05 15:07:00,
2013-03-05 10:12:00,68.4,54.9,30.13,WNW,288,1.0,4.0,62,0.00,,,0.00,meteohub,2013-03-05 15:12:00,
2013-03-05 10:17:00,68.9,54.9,30.13,WNW,288,2.0,4.0,61,0.00,,,0.00,meteohub,2013-03-05 15:17:00,
2013-03-05 10:22:00,69.3,54.9,30.13,WNW,288,3.0,4.0,60,0.00,,,0.00,meteohub,2013-03-05 15:22:00,
2013-03-05 10:27:00,69.6,55.0,30.13,WNW,288,0.0,4.0,60,0.00,,,0.00,meteohub,2013-03-05 15:27:00,
2013-03-05 10:32:00,70.2,55.6,30.13,WNW,288,0.0,4.0,60,0.00,,,0.00,meteohub,2013-03-05 15:32:00,
2013-03-05 10:37:00,70.9,55.8,30.13,WNW,288,1.0,5.0,59,0.00,,,0.00,meteohub,2013-03-05 15:37:00,
2013-03-05 10:42:00,70.0,55.4,30.13,WNW,288,2.0,5.0,60,0.00,,,0.00,meteohub,2013-03-05 15:42:00,
2013-03-05 10:47:00,70.0,55.9,30.13,WNW,288,2.0,5.0,61,0.00,,,0.00,meteohub,2013-03-05 15:47:00,
2013-03-05 10:52:00,70.9,56.3,30.13,SE,125,1.0,5.0,60,0.00,,,0.00,meteohub,2013-03-05 15:52:00,
2013-03-05 10:57:00,70.3,55.8,30.13,SW,215,3.0,7.0,60,0.00,,,0.00,meteohub,2013-03-05 15:57:00,
2013-03-05 11:02:00,70.2,56.1,30.13,SW,229,1.0,7.0,61,0.00,,,0.00,meteohub,2013-03-05 16:02:00,
2013-03-05 11:07:00,70.0,55.9,30.13,SW,229,2.0,7.0,61,0.00,,,0.00,meteohub,2013-03-05 16:07:00,
2013-03-05 11:12:00,70.7,56.7,30.13,SW,229,0.0,6.0,61,0.00,,,0.00,meteohub,2013-03-05 16:12:00,
2013-03-05 11:17:00,72.0,56.3,30.13,SW,217,4.0,5.0,58,0.00,,,0.00,meteohub,2013-03-05 16:17:00,
2013-03-05 11:22:00,72.0,56.8,30.13,SW,217,1.0,6.0,59,0.00,,,0.00,meteohub,2013-03-05 16:22:00,
2013-03-05 11:27:00,72.0,56.3,30.13,WSW,250,2.0,6.0,58,0.00,,,0.00,meteohub,2013-03-05 16:27:00,
2013-03-05 11:32:00,71.8,56.7,30.13,WSW,246,1.0,6.0,59,0.00,,,0.00,meteohub,2013-03-05 16:32:00,
2013-03-05 11:37:00,72.5,56.8,30.13,WSW,246,2.0,6.0,58,0.00,,,0.00,meteohub,2013-03-05 16:37:00,
2013-03-05 11:42:00,73.0,56.5,30.13,WSW,247,1.0,6.0,56,0.00,,,0.00,meteohub,2013-03-05 16:42:00,
2013-03-05 11:47:00,73.4,56.7,30.13,West,263,3.0,7.0,56,0.00,,,0.00,meteohub,2013-03-05 16:47:00,
2013-03-05 11:52:00,73.2,57.0,30.13,West,259,3.0,7.0,57,0.00,,,0.00,meteohub,2013-03-05 16:52:00,
2013-03-05 11:57:00,73.4,56.7,30.13,WSW,257,5.0,7.0,56,0.00,,,0.00,meteohub,2013-03-05 16:57:00,
2013-03-05 12:02:00,73.8,57.6,30.13,WSW,255,4.0,8.0,57,0.00,,,0.00,meteohub,2013-03-05 17:02:00,
2013-03-05 12:07:00,73.4,57.2,30.13,WSW,238,3.0,8.0,57,0.00,,,0.00,meteohub,2013-03-05 17:07:00,
2013-03-05 12:12:00,73.6,56.8,30.12,West,261,2.0,8.0,56,0.00,,,0.00,meteohub,2013-03-05 17:12:00,
2013-03-05 12:17:00,72.3,56.3,30.12,WSW,254,4.0,8.0,57,0.00,,,0.00,meteohub,2013-03-05 17:17:00,
2013-03-05 12:22:00,71.1,55.9,30.12,WSW,250,4.0,9.0,59,0.00,,,0.00,meteohub,2013-03-05 17:22:00,
2013-03-05 12:27:00,70.5,55.9,30.12,NW,313,4.0,10.0,60,0.00,,,0.00,meteohub,2013-03-05 17:27:00,
2013-03-05 12:32:00,71.1,56.5,30.12,West,266,3.0,10.0,60,0.00,,,0.00,meteohub,2013-03-05 17:32:00,
2013-03-05 12:37:00,72.1,56.5,30.11,WSW,256,7.0,11.0,58,0.00,,,0.00,meteohub,2013-03-05 17:37:00,
2013-03-05 12:42:00,72.9,57.2,30.11,West,265,10.0,11.0,58,0.00,,,0.00,meteohub,2013-03-05 17:42:00,
2013-03-05 12:47:00,72.9,57.2,30.11,WSW,254,0.0,11.0,58,0.00,,,0.00,meteohub,2013-03-05 17:47:00,
2013-03-05 12:52:00,73.6,57.4,30.11,West,261,3.0,11.0,57,0.00,,,0.00,meteohub,2013-03-05 17:52:00,
2013-03-05 12:57:00,73.0,56.5,30.10,West,263,0.0,11.0,56,0.00,,,0.00,meteohub,2013-03-05 17:57:00,
2013-03-05 13:02:00,73.2,57.0,30.09,WSW,248,2.0,10.0,57,0.00,,,0.00,meteohub,2013-03-05 18:02:00,
2013-03-05 13:07:00,73.8,57.0,30.09,WSW,255,2.0,10.0,56,0.00,,,0.00,meteohub,2013-03-05 18:07:00,
2013-03-05 13:12:00,73.8,57.6,30.09,WSW,248,2.0,9.0,57,0.00,,,0.00,meteohub,2013-03-05 18:12:00,
2013-03-05 13:17:00,73.9,56.3,30.09,WSW,240,4.0,9.0,54,0.00,,,0.00,meteohub,2013-03-05 18:17:00,
2013-03-05 13:22:00,74.1,56.8,30.09,West,265,2.0,10.0,55,0.00,,,0.00,meteohub,2013-03-05 18:22:00,
2013-03-05 13:27:00,74.7,55.9,30.08,South,182,1.0,10.0,52,0.00,,,0.00,meteohub,2013-03-05 18:27:00,
2013-03-05 13:32:00,75.0,56.1,30.08,WSW,246,3.0,10.0,52,0.00,,,0.00,meteohub,2013-03-05 18:32:00,
2013-03-05 13:37:00,75.4,55.9,30.08,SW,233,2.0,9.0,51,0.00,,,0.00,meteohub,2013-03-05 18:37:00,
2013-03-05 13:42:00,75.7,55.8,30.08,South,169,1.0,9.0,50,0.00,,,0.00,meteohub,2013-03-05 18:42:00,
2013-03-05 13:47:00,76.1,56.1,30.07,WSW,244,0.0,6.0,50,0.00,,,0.00,meteohub,2013-03-05 18:47:00,
2013-03-05 13:52:00,76.6,55.4,30.07,WSW,242,0.0,6.0,48,0.00,,,0.00,meteohub,2013-03-05 18:52:00,
2013-03-05 13:57:00,77.0,55.2,30.07,WSW,242,2.0,6.0,47,0.00,,,0.00,meteohub,2013-03-05 18:57:00,
2013-03-05 14:02:00,76.5,55.9,30.07,SW,235,2.0,6.0,49,0.00,,,0.00,meteohub,2013-03-05 19:02:00,
2013-03-05 14:07:00,75.7,54.7,30.07,WSW,245,5.0,10.0,48,0.00,,,0.00,meteohub,2013-03-05 19:07:00,
2013-03-05 14:12:00,75.0,54.0,30.07,SW,232,2.0,10.0,48,0.00,,,0.00,meteohub,2013-03-05 19:12:00,
2013-03-05 14:17:00,75.6,55.0,30.07,WSW,240,2.0,10.0,49,0.00,,,0.00,meteohub,2013-03-05 19:17:00,
2013-03-05 14:22:00,75.6,55.6,30.07,SSW,201,5.0,8.0,50,0.00,,,0.00,meteohub,2013-03-05 19:22:00,
2013-03-05 14:27:00,75.9,55.9,30.07,WNW,284,3.0,8.0,50,0.00,,,0.00,meteohub,2013-03-05 19:27:00,
2013-03-05 14:33:00,75.9,55.9,30.07,SW,235,3.0,7.0,50,0.00,,,0.00,meteohub,2013-03-05 19:33:00,
2013-03-05 14:38:00,75.7,55.2,30.06,WSW,255,1.0,7.0,49,0.00,,,0.00,meteohub,2013-03-05 19:38:00,
2013-03-05 14:43:00,75.7,55.2,30.06,WSW,255,5.0,6.0,49,0.00,,,0.00,meteohub,2013-03-05 19:43:00,
2013-03-05 14:48:00,75.4,54.9,30.06,WSW,242,2.0,9.0,49,0.00,,,0.00,meteohub,2013-03-05 19:48:00,
2013-03-05 14:53:00,75.7,55.8,30.06,West,262,4.0,9.0,50,0.00,,,0.00,meteohub,2013-03-05 19:53:00,
2013-03-05 14:58:00,75.0,54.0,30.07,WSW,258,5.0,9.0,48,0.00,,,0.00,meteohub,2013-03-05 19:58:00,
2013-03-05 15:03:00,74.5,54.7,30.07,West,259,6.0,9.0,50,0.00,,,0.00,meteohub,2013-03-05 20:03:00,
2013-03-05 15:08:00,74.5,55.2,30.07,WSW,254,3.0,11.0,51,0.00,,,0.00,meteohub,2013-03-05 20:08:00,
2013-03-05 15:13:00,74.7,53.6,30.07,WSW,243,6.0,11.0,48,0.00,,,0.00,meteohub,2013-03-05 20:13:00,
2013-03-05 15:18:00,74.5,54.1,30.07,WSW,247,4.0,14.0,49,0.00,,,0.00,meteohub,2013-03-05 20:18:00,
2013-03-05 15:23:00,74.3,54.0,30.07,WSW,257,2.0,14.0,49,0.00,,,0.00,meteohub,2013-03-05 20:23:00,
2013-03-05 15:28:00,74.3,54.5,30.07,WSW,254,5.0,14.0,50,0.00,,,0.00,meteohub,2013-03-05 20:28:00,
2013-03-05 15:34:00,73.9,54.1,30.07,SW,236,5.0,10.0,50,0.00,,,0.00,meteohub,2013-03-05 20:34:00,
2013-03-05 15:39:00,74.1,54.9,30.07,SW,236,3.0,10.0,51,0.00,,,0.00,meteohub,2013-03-05 20:39:00,
2013-03-05 15:44:00,74.3,55.0,30.07,South,178,4.0,9.0,51,0.00,,,0.00,meteohub,2013-03-05 20:44:00,
2013-03-05 15:49:00,74.3,55.6,30.06,West,266,6.0,9.0,52,0.00,,,0.00,meteohub,2013-03-05 20:49:00,
2013-03-05 15:54:00,74.1,55.4,30.07,SW,230,2.0,7.0,52,0.00,,,0.00,meteohub,2013-03-05 20:54:00,
2013-03-05 15:59:00,73.6,54.9,30.07,West,268,2.0,7.0,52,0.00,,,0.00,meteohub,2013-03-05 20:59:00,
2013-03-05 16:04:00,73.6,54.9,30.07,SW,221,3.0,9.0,52,0.00,,,0.00,meteohub,2013-03-05 21:04:00,
2013-03-05 16:09:00,73.6,55.9,30.06,WSW,245,4.0,9.0,54,0.00,,,0.00,meteohub,2013-03-05 21:09:00,
2013-03-05 16:14:00,73.8,56.1,30.06,West,261,5.0,9.0,54,0.00,,,0.00,meteohub,2013-03-05 21:14:00,
2013-03-05 16:19:00,73.9,55.8,30.06,WSW,242,6.0,7.0,53,0.00,,,0.00,meteohub,2013-03-05 21:19:00,
2013-03-05 16:24:00,73.4,55.8,30.06,West,265,5.0,6.0,54,0.00,,,0.00,meteohub,2013-03-05 21:24:00,
2013-03-05 16:30:00,73.4,56.3,30.06,West,278,2.0,8.0,55,0.00,,,0.00,meteohub,2013-03-05 21:30:00,
2013-03-05 16:35:00,73.0,55.9,30.06,West,263,3.0,8.0,55,0.00,,,0.00,meteohub,2013-03-05 21:35:00,
2013-03-05 16:40:00,73.0,56.5,30.06,WSW,253,4.0,7.0,56,0.00,,,0.00,meteohub,2013-03-05 21:40:00,
2013-03-05 16:45:00,72.5,56.5,30.06,WSW,242,4.0,7.0,57,0.00,,,0.00,meteohub,2013-03-05 21:45:00,
2013-03-05 16:50:00,72.3,56.3,30.06,WSW,250,5.0,7.0,57,0.00,,,0.00,meteohub,2013-03-05 21:50:00,
2013-03-05 16:55:00,72.1,56.5,30.06,WSW,242,1.0,7.0,58,0.00,,,0.00,meteohub,2013-03-05 21:55:00,
2013-03-05 17:00:00,72.3,56.7,30.06,WSW,242,0.0,6.0,58,0.00,,,0.00,meteohub,2013-03-05 22:00:00,
2013-03-05 17:05:00,72.3,56.7,30.06,WSW,256,2.0,6.0,58,0.00,,,0.00,meteohub,2013-03-05 22:05:00,
2013-03-05 17:10:00,72.1,57.0,30.06,WSW,252,1.0,7.0,59,0.00,,,0.00,meteohub,2013-03-05 22:10:00,
2013-03-05 17:15:00,72.1,57.0,30.06,WSW,252,1.0,7.0,59,0.00,,,0.00,meteohub,2013-03-05 22:15:00,
2013-03-05 17:20:00,72.0,56.8,30.06,WSW,252,1.0,5.0,59,0.00,,,0.00,meteohub,2013-03-05 22:20:00,
2013-03-05 17:25:00,71.8,56.7,30.06,SW,215,2.0,7.0,59,0.00,,,0.00,meteohub,2013-03-05 22:25:00,
2013-03-05 17:30:00,71.2,57.0,30.05,SW,232,3.0,7.0,61,0.00,,,0.00,meteohub,2013-03-05 22:30:00,
2013-03-05 17:35:00,70.9,57.2,30.05,SW,228,3.0,7.0,62,0.00,,,0.00,meteohub,2013-03-05 22:35:00,
2013-03-05 17:40:00,70.5,56.8,30.05,SW,229,3.0,6.0,62,0.00,,,0.00,meteohub,2013-03-05 22:40:00,
2013-03-05 17:46:00,70.3,57.2,30.05,SW,220,0.0,5.0,63,0.00,,,0.00,meteohub,2013-03-05 22:46:00,
2013-03-05 17:51:00,70.0,56.8,30.05,SW,219,2.0,5.0,63,0.00,,,0.00,meteohub,2013-03-05 22:51:00,
2013-03-05 17:56:00,69.6,56.8,30.05,SW,222,2.0,7.0,64,0.00,,,0.00,meteohub,2013-03-05 22:56:00,
2013-03-05 18:01:00,69.3,57.0,30.05,SSE,165,2.0,7.0,65,0.00,,,0.00,meteohub,2013-03-05 23:01:00,
2013-03-05 18:06:00,68.9,57.0,30.04,SW,225,0.0,7.0,66,0.00,,,0.00,meteohub,2013-03-05 23:06:00,
2013-03-05 18:11:00,68.5,57.2,30.05,SSE,161,3.0,6.0,67,0.00,,,0.00,meteohub,2013-03-05 23:11:00,
2013-03-05 18:16:00,67.8,56.8,30.04,South,187,1.0,6.0,68,0.00,,,0.00,meteohub,2013-03-05 23:16:00,
2013-03-05 18:21:00,67.5,57.0,30.04,SW,230,0.0,5.0,69,0.00,,,0.00,meteohub,2013-03-05 23:21:00,
2013-03-05 18:26:00,66.9,56.8,30.04,SW,230,1.0,4.0,70,0.00,,,0.00,meteohub,2013-03-05 23:26:00,
2013-03-05 18:31:00,66.6,57.2,30.04,SW,230,1.0,4.0,72,0.00,,,0.00,meteohub,2013-03-05 23:31:00,
2013-03-05 18:36:00,66.0,57.2,30.04,SW,230,1.0,5.0,73,0.00,,,0.00,meteohub,2013-03-05 23:36:00,
2013-03-05 18:41:00,65.8,57.0,30.04,SW,230,0.0,5.0,73,0.00,,,0.00,meteohub,2013-03-05 23:41:00,
2013-03-05 18:46:00,65.7,57.6,30.04,SE,127,2.0,5.0,75,0.00,,,0.00,meteohub,2013-03-05 23:46:00,
2013-03-05 18:52:00,65.5,57.7,30.04,SE,127,1.0,4.0,76,0.00,,,0.00,meteohub,2013-03-05 23:52:00,
2013-03-05 18:57:00,65.1,57.4,30.04,West,272,1.0,4.0,76,0.00,,,0.00,meteohub,2013-03-05 23:57:00,
2013-03-05 19:02:00,64.9,57.6,30.04,West,272,1.0,5.0,77,0.00,,,0.00,meteohub,2013-03-06 00:02:00,
2013-03-05 19:07:00,64.8,57.7,30.04,West,269,2.0,5.0,78,0.00,,,0.00,meteohub,2013-03-06 00:07:00,
2013-03-05 19:12:00,64.8,57.7,30.03,West,265,1.0,4.0,78,0.00,,,0.00,meteohub,2013-03-06 00:12:00,
2013-03-05 19:17:00,64.6,57.9,30.03,West,264,2.0,4.0,79,0.00,,,0.00,meteohub,2013-03-06 00:17:00,
2013-03-05 19:22:00,64.4,58.1,30.04,West,263,1.0,4.0,80,0.00,,,0.00,meteohub,2013-03-06 00:22:00,
2013-03-05 19:27:00,64.2,57.9,30.03,West,263,2.0,4.0,80,0.00,,,0.00,meteohub,2013-03-06 00:27:00,
2013-03-05 19:32:00,64.0,58.1,30.04,West,263,0.0,4.0,81,0.00,,,0.00,meteohub,2013-03-06 00:32:00,
2013-03-05 19:37:00,63.9,57.9,30.04,West,263,0.0,2.0,81,0.00,,,0.00,meteohub,2013-03-06 00:37:00,
2013-03-05 19:42:00,63.9,58.3,30.03,West,263,1.0,3.0,82,0.00,,,0.00,meteohub,2013-03-06 00:42:00,
2013-03-05 19:47:00,63.7,58.1,30.03,West,263,1.0,3.0,82,0.00,,,0.00,meteohub,2013-03-06 00:47:00,
2013-03-05 19:52:00,63.5,58.3,30.03,West,263,0.0,3.0,83,0.00,,,0.00,meteohub,2013-03-06 00:52:00,
2013-03-05 19:57:00,63.3,58.1,30.03,West,263,0.0,3.0,83,0.00,,,0.00,meteohub,2013-03-06 00:57:00,
2013-03-05 20:02:00,63.3,58.1,30.03,West,263,1.0,3.0,83,0.00,,,0.00,meteohub,2013-03-06 01:02:00,
2013-03-05 20:07:00,63.3,58.1,30.02,West,263,1.0,3.0,83,0.00,,,0.00,meteohub,2013-03-06 01:07:00,
2013-03-05 20:12:00,63.3,58.5,30.02,West,263,1.0,3.0,84,0.00,,,0.00,meteohub,2013-03-06 01:12:00,
2013-03-05 20:17:00,63.3,58.5,30.02,West,263,2.0,3.0,84,0.00,,,0.00,meteohub,2013-03-06 01:17:00,
2013-03-05 20:22:00,63.3,58.8,30.02,West,263,2.0,3.0,85,0.00,,,0.00,meteohub,2013-03-06 01:22:00,
2013-03-05 20:27:00,63.3,59.0,30.02,West,263,1.0,3.0,86,0.00,,,0.00,meteohub,2013-03-06 01:27:00,
2013-03-05 20:32:00,63.3,59.0,30.02,West,263,2.0,3.0,86,0.00,,,0.00,meteohub,2013-03-06 01:32:00,
2013-03-05 20:37:00,63.3,59.0,30.02,West,263,2.0,2.0,86,0.00,,,0.00,meteohub,2013-03-06 01:37:00,
2013-03-05 20:42:00,63.3,59.4,30.02,West,263,1.0,3.0,87,0.00,,,0.00,meteohub,2013-03-06 01:42:00,
2013-03-05 20:47:00,63.3,59.4,30.02,West,263,1.0,3.0,87,0.00,,,0.00,meteohub,2013-03-06 01:47:00,
2013-03-05 20:52:00,63.3,59.4,30.02,West,263,2.0,3.0,87,0.00,,,0.00,meteohub,2013-03-06 01:52:00,
2013-03-05 20:57:00,63.3,59.7,30.02,West,263,1.0,3.0,88,0.00,,,0.00,meteohub,2013-03-06 01:57:00,
2013-03-05 21:02:00,63.3,59.7,30.02,West,263,0.0,3.0,88,0.00,,,0.00,meteohub,2013-03-06 02:02:00,
2013-03-05 21:07:00,63.3,59.7,30.02,West,263,1.0,4.0,88,0.00,,,0.00,meteohub,2013-03-06 02:07:00,
2013-03-05 21:12:00,63.3,59.7,30.02,SW,234,1.0,4.0,88,0.00,,,0.00,meteohub,2013-03-06 02:12:00,
2013-03-05 21:17:00,63.3,60.1,30.01,SW,231,0.0,6.0,89,0.00,,,0.00,meteohub,2013-03-06 02:17:00,
2013-03-05 21:22:00,63.3,60.1,30.02,SW,231,0.0,6.0,89,0.00,,,0.00,meteohub,2013-03-06 02:22:00,
2013-03-05 21:27:00,63.3,60.1,30.02,SW,231,0.0,3.0,89,0.00,,,0.00,meteohub,2013-03-06 02:27:00,
2013-03-05 21:32:00,63.3,60.1,30.01,SW,231,1.0,4.0,89,0.00,,,0.00,meteohub,2013-03-06 02:32:00,
2013-03-05 21:37:00,63.5,60.3,30.01,SW,229,0.0,5.0,89,0.00,,,0.00,meteohub,2013-03-06 02:37:00,
2013-03-05 21:42:00,63.7,60.1,30.02,SW,217,0.0,5.0,88,0.00,,,0.00,meteohub,2013-03-06 02:42:00,
2013-03-05 21:47:00,63.7,60.1,30.02,WSW,239,1.0,5.0,88,0.00,,,0.00,meteohub,2013-03-06 02:47:00,
2013-03-05 21:52:00,63.9,60.3,30.02,SW,219,2.0,5.0,88,0.00,,,0.00,meteohub,2013-03-06 02:52:00,
2013-03-05 21:57:00,63.9,60.3,30.01,WSW,257,0.0,6.0,88,0.00,,,0.00,meteohub,2013-03-06 02:57:00,
2013-03-05 22:02:00,63.9,59.9,30.02,WSW,257,2.0,6.0,87,0.00,,,0.00,meteohub,2013-03-06 03:02:00,
2013-03-05 22:07:00,64.0,60.4,30.02,WSW,251,1.0,5.0,88,0.00,,,0.00,meteohub,2013-03-06 03:07:00,
2013-03-05 22:12:00,64.0,60.4,30.02,WSW,251,1.0,4.0,88,0.00,,,0.00,meteohub,2013-03-06 03:12:00,
2013-03-05 22:17:00,64.2,60.6,30.02,WSW,248,2.0,5.0,88,0.00,,,0.00,meteohub,2013-03-06 03:17:00,
2013-03-05 22:22:00,64.6,61.0,30.02,SW,215,3.0,5.0,88,0.00,,,0.00,meteohub,2013-03-06 03:22:00,
2013-03-05 22:27:00,64.8,60.8,30.02,SW,228,1.0,5.0,87,0.00,,,0.00,meteohub,2013-03-06 03:27:00,
2013-03-05 22:32:00,64.9,61.0,30.02,SW,225,4.0,6.0,87,0.00,,,0.00,meteohub,2013-03-06 03:32:00,
2013-03-05 22:37:00,64.9,60.6,30.02,SW,223,1.0,6.0,86,0.00,,,0.00,meteohub,2013-03-06 03:37:00,
2013-03-05 22:42:00,65.1,60.4,30.02,South,189,2.0,6.0,85,0.00,,,0.00,meteohub,2013-03-06 03:42:00,
2013-03-05 22:47:00,65.3,60.6,30.02,SSW,192,1.0,6.0,85,0.00,,,0.00,meteohub,2013-03-06 03:47:00,
2013-03-05 22:52:00,65.3,60.6,30.02,SSW,192,1.0,5.0,85,0.00,,,0.00,meteohub,2013-03-06 03:52:00,
2013-03-05 22:57:00,65.3,60.6,30.01,SW,226,3.0,7.0,85,0.00,,,0.00,meteohub,2013-03-06 03:57:00,
2013-03-05 23:02:00,65.1,60.1,30.02,WSW,238,0.0,7.0,84,0.00,,,0.00,meteohub,2013-03-06 04:02:00,
2013-03-05 23:07:00,65.1,60.1,30.01,SW,228,1.0,7.0,84,0.00,,,0.00,meteohub,2013-03-06 04:07:00,
2013-03-05 23:12:00,65.1,60.1,30.01,SW,234,2.0,7.0,84,0.00,,,0.00,meteohub,2013-03-06 04:12:00,
2013-03-05 23:17:00,65.1,60.1,30.01,SW,234,2.0,7.0,84,0.00,,,0.00,meteohub,2013-03-06 04:17:00,
2013-03-05 23:22:00,65.1,60.1,30.01,SW,234,0.0,5.0,84,0.00,,,0.00,meteohub,2013-03-06 04:22:00,
2013-03-05 23:27:00,64.9,59.9,30.01,WSW,240,1.0,5.0,84,0.00,,,0.00,meteohub,2013-03-06 04:27:00,
2013-03-05 23:32:00,64.9,59.9,30.01,WSW,243,4.0,4.0,84,0.00,,,0.00,meteohub,2013-03-06 04:32:00,
2013-03-05 23:37:00,65.1,60.1,30.01,SW,236,3.0,7.0,84,0.00,,,0.00,meteohub,2013-03-06 04:37:00,
2013-03-05 23:42:00,65.3,60.3,30.01,WSW,242,2.0,7.0,84,0.00,,,0.00,meteohub,2013-03-06 04:42:00,
2013-03-05 23:47:00,65.3,60.3,30.01,WSW,238,0.0,6.0,84,0.00,,,0.00,meteohub,2013-03-06 04:47:00,
2013-03-05 23:52:00,65.3,60.3,30.01,West,264,3.0,6.0,84,0.00,,,0.00,meteohub,2013-03-06 04:52:00,
2013-03-05 23:57:00,65.5,60.4,30.01,SW,223,6.0,7.0,84,0.00,,,0.00,meteohub,2013-03-06 04:57:00,